Location: Moonridge Observatory
(39.2268°N, 77.7914°W)
Time: 11:32:48
(UTC-05:00)

Amateur Radio Satellites - All Passes

Search period start: 22 November 2014 11:02
Search period end: 23 November 2014 11:02
Location: Moonridge Observatory, 39.2268°N, 77.7914°W

Satellite Date Start Highest point End Downlink Frequencies (MHz)
Time Altitude Azimuth
FUNcube-1 22 Nov 11:03:57 11:07:53 40° 288° (WNW) 11:11:51 145.935
SHINDAISAT 22 Nov 11:04:37 11:06:28 79° 300° (WNW) 11:08:20 437.305
CUBEBUG 1 22 Nov 11:06:21 11:10:32 43° 99° (E) 11:14:40 437.445
POPSAT HIP 1 22 Nov 11:06:21 11:10:00 27° 264° (W) 11:13:40 437.405
UKube-1 22 Nov 11:08:39 11:11:46 20° 294° (WNW) 11:14:52 .
CINEMA 3 22 Nov 11:09:12 11:11:57 17° 293° (WNW) 11:14:44 145.822/145.860
CUBEBUG 2 22 Nov 11:10:47 11:14:14 25° 290° (WNW) 11:17:44 437.445
SPROUT 22 Nov 11:14:02 11:14:56 11° 90° (E) 11:15:49 437.525
BUGSAT 1 22 Nov 11:14:56 11:18:31 26° 264° (W) 11:22:07 437.445
TISAT 1 22 Nov 11:16:20 11:18:21 13° 92° (E) 11:20:22 437.305
UWE-3 22 Nov 11:19:56 11:23:16 23° 291° (WNW) 11:26:38 435.000/436.395/437.385
Oscar 11 22 Nov 11:24:29 11:26:09 12° 297° (WNW) 11:27:48 145.826/435.025
HO-68 22 Nov 11:25:03 11:28:47 15° 306° (NW) 11:32:30 435.675
TIGRISAT 22 Nov 11:32:33 11:33:27 11° 269° (W) 11:34:21 435.000
ESTCUBE 1 22 Nov 11:33:53 11:38:27 87° 284° (WNW) 11:42:59 437.505/2401.250
POLYITAN 1 22 Nov 11:39:32 11:41:15 12° 269° (W) 11:42:58 437.675
Oscar 19 22 Nov 11:43:34 11:46:58 18° 64° (ENE) 11:50:22 437.125/150
QB50P2 22 Nov 11:43:54 11:45:02 11° 269° (W) 11:46:10 145.880/145.840
VELOX 1 22 Nov 11:51:11 11:54:34 22° 293° (WNW) 11:57:56 145.980
AISAT 22 Nov 12:16:07 12:17:58 13° 297° (WNW) 12:19:48 437.250
ITAMSAT 1 22 Nov 12:27:12 12:30:47 19° 63° (ENE) 12:34:22 435.822/435.867
BEESAT 22 Nov 12:28:26 12:30:33 13° 91° (E) 12:32:40 436.000
CUSAT 1 22 Nov 12:36:09 12:36:33 10° 93° (E) 12:36:56 437.405
Gurwin Techsat 1B 22 Nov 12:36:42 12:39:06 13° 60° (ENE) 12:41:30 435.225
YUBILEINY 22 Nov 12:37:26 12:43:44 21° 65° (ENE) 12:49:57 435.215
DANDE 22 Nov 12:43:22 12:44:17 11° 94° (E) 12:45:11 436.750
CUBEBUG 1 22 Nov 12:43:49 12:46:33 16° 295° (WNW) 12:49:15 437.445
SO-50 22 Nov 12:44:30 12:48:42 28° 49° (NE) 12:52:55 436.795
SPROUT 22 Nov 12:47:10 12:51:24 60° 285° (WNW) 12:55:36 437.525
TISAT 1 22 Nov 12:50:24 12:54:27 47° 287° (WNW) 12:58:29 437.305
AUBIESAT-1 22 Nov 13:12:59 13:17:47 51° 104° (ESE) 13:22:30 437.475
M-CUBED/EXP-1 PRIME 22 Nov 13:15:13 13:20:07 59° 105° (ESE) 13:24:55 437.505
ITUPSAT 1 22 Nov 13:19:31 13:24:08 44° 99° (E) 13:28:41 437.325
Oscar 19 22 Nov 13:20:53 13:25:51 53° 260° (W) 13:30:52 437.125/150
SWISSCUBE 22 Nov 13:32:00 13:36:48 66° 102° (ESE) 13:41:32 437.505
AO-7 22 Nov 13:43:14 13:48:52 21° 53° (NE) 13:54:30 29.400- 29.500
KKS-1 22 Nov 13:59:43 14:03:17 23° 95° (E) 14:06:50 437.445
BEESAT 22 Nov 14:04:03 14:08:48 63° 286° (WNW) 14:13:31 436.000
ITAMSAT 1 22 Nov 14:04:45 14:09:50 53° 260° (W) 14:14:57 435.822/435.867
HORYU 2 22 Nov 14:11:26 14:15:35 42° 72° (ENE) 14:19:47 437.375
Gurwin Techsat 1B 22 Nov 14:13:02 14:18:20 81° 257° (WSW) 14:23:41 435.225
CUSAT 1 22 Nov 14:17:41 14:19:31 16° 284° (WNW) 14:21:15 437.405
SO-50 22 Nov 14:24:50 14:29:19 37° 246° (WSW) 14:33:49 436.795
RS-15 22 Nov 14:25:08 14:26:52 11° 95° (E) 14:28:36 29.354- 29.394
DANDE 22 Nov 14:25:39 14:27:38 16° 283° (WNW) 14:29:27 436.750
YUBILEINY 22 Nov 14:32:47 14:41:30 79° 266° (W) 14:50:08 435.215
AUBIESAT-1 22 Nov 14:48:53 14:52:21 20° 300° (WNW) 14:55:49 437.475
M-CUBED/EXP-1 PRIME 22 Nov 14:51:27 14:54:39 18° 301° (WNW) 14:57:51 437.505
ITUPSAT 1 22 Nov 14:58:16 15:01:41 20° 295° (WNW) 15:05:05 437.325
JAS-2 22 Nov 15:00:38 15:05:36 19° 57° (ENE) 15:10:40 435.910
STARS 22 Nov 15:03:23 15:07:47 82° 103° (ESE) 15:12:10 437.465
VERMONT LUNAR 22 Nov 15:04:26 15:06:48 17° 146° (SSE) 15:09:11 437.305
SWISSCUBE 22 Nov 15:11:45 15:14:04 14° 298° (WNW) 15:16:23 437.505
AO-7 22 Nov 15:32:16 15:40:33 90° 254° (WSW) 15:48:55 29.400- 29.500
KKS-1 22 Nov 15:36:04 15:39:55 30° 291° (WNW) 15:43:45 437.445
HORYU 2 22 Nov 15:49:41 15:52:27 16° 267° (W) 15:55:15 437.375
O/OREOS (USA 219) 22 Nov 15:52:16 15:56:03 26° 60° (ENE) 15:59:49 437.305
MOZHAYETS 4 22 Nov 16:12:43 16:15:52 18° 93° (E) 16:19:01
PHONESAT 2.4 22 Nov 16:14:24 16:17:49 35° 154° (SSE) 16:21:14 2401.200-2431.200
Cubesat XI-IV 22 Nov 16:15:38 16:18:30 15° 61° (ENE) 16:21:21 437.490
MaSat-1 22 Nov 16:26:01 16:28:54 34° 297° (WNW) 16:31:32 437.345
RS-15 22 Nov 16:26:05 16:36:51 64° 114° (ESE) 16:47:33 29.354- 29.394
YUBILEINY 22 Nov 16:33:06 16:36:43 13° 285° (WNW) 16:40:21 435.215
VERMONT LUNAR 22 Nov 16:41:18 16:44:53 64° 161° (SSE) 16:48:30 437.305
JAS-2 22 Nov 16:42:01 16:49:28 88° 75° (ENE) 16:57:24 435.910
CUTE-I 22 Nov 16:55:54 17:00:39 33° 68° (ENE) 17:05:24 437.470
PRISM 22 Nov 17:14:35 17:16:41 13° 92° (E) 17:18:46 437.425
AO-7 22 Nov 17:29:24 17:34:18 17° 269° (W) 17:39:15 29.400- 29.500
O/OREOS (USA 219) 22 Nov 17:31:36 17:35:23 27° 257° (WSW) 17:39:10 437.305
CUBESAT XI-V 22 Nov 17:44:32 17:45:54 11° 89° (E) 17:47:16 437.345
MOZHAYETS 4 22 Nov 17:48:52 17:53:17 43° 288° (WNW) 17:57:40
Cubesat XI-IV 22 Nov 17:52:33 17:57:55 74° 257° (WSW) 18:03:19 437.490
PHONESAT 2.4 22 Nov 17:52:45 17:56:28 83° 350° (N) 18:00:12 2401.200-2431.200
STRAND 1 22 Nov 18:17:52 18:22:08 26° 95° (E) 18:26:21 437.568
HO-68 22 Nov 18:19:19 18:22:27 13° 52° (NE) 18:25:35 435.675
VERMONT LUNAR 22 Nov 18:19:48 18:23:26 70° 358° (N) 18:27:03 437.305
GONETS M04 22 Nov 18:26:38 18:33:28 24° 67° (ENE) 18:40:12
JAS-2 22 Nov 18:30:42 18:35:22 17° 273° (W) 18:40:13 435.910
CUTE-I 22 Nov 18:36:00 18:40:40 30° 264° (W) 18:45:21 437.470
RS-15 22 Nov 18:39:46 18:49:46 40° 318° (NW) 18:59:54 29.354- 29.394
PRISM 22 Nov 18:48:24 18:52:29 47° 287° (WNW) 18:56:32 437.425
PCSat 22 Nov 19:12:56 19:16:19 17° 104° (ESE) 19:19:43 145.827
CUBESAT XI-V 22 Nov 19:19:08 19:23:48 67° 285° (WNW) 19:28:24 437.345
SEEDS 22 Nov 19:20:19 19:22:27 14° 65° (ENE) 19:24:35 437.485
DOVE 4 22 Nov 19:30:58 19:32:48 12° 65° (ENE) 19:34:37 437.250
PHONESAT 2.4 22 Nov 19:31:41 19:35:25 76° 7° (N) 19:39:08 2401.200-2431.200
AIST 1 22 Nov 19:35:24 19:39:18 32° 91° (E) 19:43:14
CANX-2 22 Nov 19:41:13 19:44:52 29° 70° (ENE) 19:48:32 2200.000
AAUSAT CUBESAT 2 22 Nov 19:43:59 19:46:53 19° 67° (ENE) 19:49:48 437.432
GOMX 1 22 Nov 19:53:01 19:57:12 29° 70° (ENE) 20:01:09 467.674
COMPASS 1 22 Nov 19:55:50 19:59:24 28° 70° (ENE) 20:03:00 437.405
STRAND 1 22 Nov 19:56:44 20:01:20 35° 291° (WNW) 20:05:54 437.568
VERMONT LUNAR 22 Nov 19:58:22 20:02:01 79° 195° (SSW) 20:05:38 437.305
BRITE-PL 22 Nov 20:01:36 20:06:36 50° 74° (ENE) 20:11:14 437.365/2234.400
HO-68 22 Nov 20:01:46 20:08:53 71° 71° (ENE) 20:16:03 435.675
DELFI C3 22 Nov 20:08:51 20:11:09 15° 66° (ENE) 20:13:29 145.870
CUTE 1.7 & AOD 2 22 Nov 20:15:47 20:19:57 68° 76° (ENE) 20:24:10 437.475
SHINDAISAT 22 Nov 20:17:27 20:19:00 25° 243° (WSW) 20:20:32 437.305
GONETS M04 22 Nov 20:22:18 20:31:06 72° 267° (W) 20:39:47
FUNcube-1 22 Nov 20:25:36 20:27:09 12° 64° (ENE) 20:28:42 145.935
UKube-1 22 Nov 20:26:20 20:30:03 28° 69° (ENE) 20:33:46 .
CINEMA 3 22 Nov 20:32:20 20:36:17 32° 71° (ENE) 20:40:07 145.822/145.860
CUBEBUG 2 22 Nov 20:32:24 20:35:31 20° 68° (ENE) 20:38:36 437.445
Oscar 11 22 Nov 20:40:08 20:44:10 41° 72° (ENE) 20:48:13 145.826/435.025
UWE-3 22 Nov 20:40:25 20:43:36 21° 68° (ENE) 20:46:45 435.000/436.395/437.385
BEESAT 3 22 Nov 20:51:08 20:55:08 58° 118° (ESE) 20:59:14 437.485
SEEDS 22 Nov 20:53:49 20:57:51 48° 261° (W) 21:01:56 437.485
PCSat 22 Nov 20:53:49 20:59:10 62° 301° (WNW) 21:04:33 145.827
DX 1 22 Nov 20:57:23 21:01:43 64° 74° (ENE) 21:06:04 434.975-435.025
RS-15 22 Nov 20:59:40 21:06:31 18° 351° (N) 21:13:30 29.354- 29.394
BEESAT 2 22 Nov 21:03:24 21:07:29 72° 119° (ESE) 21:11:39 435.950
DOVE 4 22 Nov 21:05:23 21:10:07 66° 259° (WSW) 21:14:36 437.250
PHONESAT 2.4 22 Nov 21:10:36 21:14:09 44° 203° (SSW) 21:17:41 2401.200-2431.200
VELOX 1 22 Nov 21:11:26 21:15:12 27° 69° (ENE) 21:18:59 145.980
AIST 1 22 Nov 21:13:48 21:17:02 20° 287° (WNW) 21:20:17
CANX-2 22 Nov 21:17:36 21:20:49 21° 266° (W) 21:24:04 2200.000
AAUSAT CUBESAT 2 22 Nov 21:18:34 21:22:19 33° 263° (W) 21:26:07 437.432
AIST 2 22 Nov 21:21:20 21:25:26 54° 117° (ESE) 21:29:37 435.215
ZACube-1 22 Nov 21:22:46 21:26:55 53° 74° (ENE) 21:31:00 437.345
GOMX 1 22 Nov 21:31:02 21:35:15 28° 263° (W) 21:39:15 467.674
COMPASS 1 22 Nov 21:31:56 21:35:08 21° 266° (W) 21:38:22 437.405
HUMSAT D 22 Nov 21:34:01 21:37:56 42° 73° (ENE) 21:41:50 437.325/437.525
AISAT 22 Nov 21:34:41 21:39:01 49° 73° (ENE) 21:43:22 437.250
VERMONT LUNAR 22 Nov 21:37:18 21:40:13 23° 211° (SSW) 21:43:06 437.305
BRITE-PL 22 Nov 21:41:50 21:45:15 18° 266° (W) 21:48:31 437.365/2234.400
DELFI C3 22 Nov 21:42:16 21:46:06 41° 261° (W) 21:49:59 145.870
TIGRISAT 22 Nov 21:46:33 21:48:44 13° 92° (E) 21:50:55 435.000
50 SAT 22 Nov 21:47:27 21:51:22 49° 74° (ENE) 21:55:16 437.505
HO-68 22 Nov 21:52:07 21:57:09 20° 268° (W) 22:02:13 435.675
QB50P2 22 Nov 21:54:34 21:55:08 10° 90° (E) 21:55:42 145.880/145.840
UNISAT 6 22 Nov 21:57:19 22:00:25 18° 94° (E) 22:03:32 437.425
FUNcube-1 22 Nov 21:58:51 22:03:02 58° 260° (W) 22:07:11 145.935
DUCHIFAT 1 22 Nov 22:01:50 22:03:43 13° 92° (E) 22:05:36 145.980
CUBEBUG 1 22 Nov 22:01:50 22:05:49 33° 70° (ENE) 22:09:49 437.445
UKube-1 22 Nov 22:02:36 22:06:10 24° 264° (W) 22:09:44 .
CUBEBUG 2 22 Nov 22:08:07 22:12:02 33° 263° (W) 22:15:53 437.445
CINEMA 3 22 Nov 22:10:07 22:13:32 21° 265° (W) 22:16:51 145.822/145.860
UWE-3 22 Nov 22:16:10 22:19:59 31° 263° (W) 22:23:44 435.000/436.395/437.385
Oscar 11 22 Nov 22:17:54 22:20:31 16° 268° (W) 22:23:09 145.826/435.025
NANOSAT C BR1 22 Nov 22:19:29 22:22:42 21° 95° (E) 22:25:53 145.865
GONETS M04 22 Nov 22:23:26 22:26:10 12° 286° (WNW) 22:28:54
ANTELSAT 22 Nov 22:24:48 22:28:55 37° 98° (E) 22:33:05 437.575/2403.000
QB50P1 22 Nov 22:28:33 22:32:09 26° 96° (E) 22:35:42 145.935-145.965
BEESAT 3 22 Nov 22:31:13 22:33:44 16° 316° (NW) 22:36:17 437.485
ESTCUBE 1 22 Nov 22:32:29 22:37:00 77° 75° (ENE) 22:41:35 437.505/2401.250
DX 1 22 Nov 22:37:26 22:38:21 11° 269° (W) 22:39:17 434.975-435.025
PCSat 22 Nov 22:42:17 22:43:43 11° 321° (NW) 22:45:09 145.827
BEESAT 2 22 Nov 22:44:11 22:46:16 13° 317° (NW) 22:48:23 435.950
VELOX 1 22 Nov 22:47:57 22:51:43 26° 264° (W) 22:55:30 145.980
PHONESAT 2.4 22 Nov 22:51:52 22:52:22 10° 218° (SW) 22:52:52 2401.200-2431.200
POPSAT HIP 1 22 Nov 22:52:27 22:56:34 50° 100° (E) 23:00:40 437.405
BUGSAT 1 22 Nov 22:58:11 23:02:09 47° 100° (E) 23:06:04 437.445
AIST 2 22 Nov 23:01:34 23:04:24 17° 315° (NW) 23:07:16 435.215
ZACube-1 22 Nov 23:02:02 23:03:35 12° 269° (W) 23:05:08 437.345
HUMSAT D 22 Nov 23:11:40 23:13:57 14° 268° (W) 23:16:13 437.325/437.525
CUSAT 1 22 Nov 23:12:14 23:15:03 16° 76° (ENE) 23:18:20 437.405
AISAT 22 Nov 23:13:28 23:15:55 14° 268° (W) 23:18:23 437.250
RS-15 22 Nov 23:16:01 23:24:39 25° 28° (NNE) 23:33:29 29.354- 29.394
TIGRISAT 22 Nov 23:21:29 23:25:44 51° 286° (WNW) 23:30:05 435.000
DANDE 22 Nov 23:22:07 23:24:50 16° 76° (ENE) 23:28:01 436.750
POLYITAN 1 22 Nov 23:23:42 23:27:54 67° 285° (WNW) 23:32:05 437.675
50 SAT 22 Nov 23:25:34 23:26:58 12° 269° (W) 23:28:21 437.505
QB50P2 22 Nov 23:27:15 23:31:26 61° 286° (WNW) 23:35:35 145.880/145.840
UNISAT 6 22 Nov 23:33:14 23:37:19 38° 288° (WNW) 23:41:28 437.425
BEESAT 22 Nov 23:34:25 23:36:58 15° 63° (ENE) 23:39:31 436.000
DUCHIFAT 1 22 Nov 23:35:48 23:39:52 49° 287° (WNW) 23:43:55 145.980
CUBEBUG 1 22 Nov 23:38:51 23:42:14 21° 266° (W) 23:45:38 437.445
SPROUT 22 Nov 23:40:10 23:44:30 89° 76° (ENE) 23:48:51 437.525
TISAT 1 22 Nov 23:41:42 23:45:59 74° 258° (WSW) 23:50:16 437.305
NANOSAT C BR1 22 Nov 23:54:55 23:58:36 30° 290° (WNW) 00:02:16 145.865
AUBIESAT-1 23 Nov 00:01:53 00:05:41 52° 68° (ENE) 00:09:52 437.475
ANTELSAT 23 Nov 00:02:18 00:05:28 20° 293° (WNW) 00:08:41 437.575/2403.000
M-CUBED/EXP-1 PRIME 23 Nov 00:04:31 00:08:21 62° 69° (ENE) 00:12:36 437.505
QB50P1 23 Nov 00:04:33 00:07:56 24° 291° (WNW) 00:11:18 145.935-145.965
ISS 23 Nov 00:24:27 00:27:40 56° 138° (SE) 00:30:54 145.825
ITUPSAT 1 23 Nov 00:25:26 00:30:00 45° 71° (ENE) 00:34:36 437.325
POPSAT HIP 1 23 Nov 00:29:58 00:32:02 14° 296° (WNW) 00:34:06 437.405
BUGSAT 1 23 Nov 00:35:15 00:37:14 13° 296° (WNW) 00:39:12 437.445
SWISSCUBE 23 Nov 00:37:36 00:42:21 68° 74° (ENE) 00:47:09 437.505
CUSAT 1 23 Nov 00:53:50 00:58:05 49° 263° (W) 01:03:46 437.405
KKS-1 23 Nov 00:57:38 01:00:53 20° 66° (ENE) 01:04:08 437.445
DANDE 23 Nov 01:04:08 01:08:12 45° 263° (W) 01:13:38 436.750
BEESAT 23 Nov 01:09:32 01:14:16 62° 259° (WSW) 01:19:02 436.000
RS-15 23 Nov 01:28:16 01:39:30 70° 55° (NE) 01:51:12 29.354- 29.394
Oscar 19 23 Nov 01:33:20 01:38:26 59° 101° (E) 01:43:32 437.125/150
YUBILEINY 23 Nov 01:37:47 01:44:30 25° 81° (E) 01:51:11 435.215
AUBIESAT-1 23 Nov 01:39:42 01:41:09 12° 266° (W) 01:42:38 437.475
JUGNU 23 Nov 01:46:47 01:47:27 10° 174° (S) 01:48:08 437.505
STARS 23 Nov 01:59:30 02:03:52 63° 74° (ENE) 02:08:14 437.465
ISS 23 Nov 02:01:57 02:04:32 21° 335° (NNW) 02:07:08 145.825
ITUPSAT 1 23 Nov 02:04:51 02:08:06 18° 267° (W) 02:11:22 437.325
MaSat-1 23 Nov 02:06:28 02:08:15 19° 250° (WSW) 02:10:05 437.345
ITAMSAT 1 23 Nov 02:18:37 02:23:45 60° 101° (ESE) 02:28:50 435.822/435.867
SWISSCUBE 23 Nov 02:18:54 02:20:40 12° 270° (W) 02:22:25 437.505
Gurwin Techsat 1B 23 Nov 02:30:30 02:35:35 44° 99° (E) 02:40:38 435.225
KKS-1 23 Nov 02:33:10 02:37:16 36° 262° (W) 02:41:24 437.445
Oscar 19 23 Nov 03:14:03 03:17:17 17° 297° (WNW) 03:20:31 437.125/150
MOZHAYETS 4 23 Nov 03:14:38 03:17:20 16° 65° (ENE) 03:20:04
YUBILEINY 23 Nov 03:31:45 03:40:30 66° 280° (W) 03:49:15 435.215
JUGNU 23 Nov 03:34:35 03:35:32 10° 185° (S) 03:36:29 437.505
AO-7 23 Nov 03:35:37 03:42:56 33° 97° (E) 03:50:12 29.400- 29.500
SRMSAT 23 Nov 03:38:28 03:39:51 11° 177° (S) 03:41:14 437.500
STARS 23 Nov 03:39:39 03:40:44 11° 269° (W) 03:41:50 437.465
HORYU 2 23 Nov 03:40:22 03:44:51 79° 285° (WNW) 03:49:21 437.375
RS-15 23 Nov 03:41:35 03:51:03 33° 255° (WSW) 04:00:52 29.354- 29.394
JAS-2 23 Nov 03:56:54 04:00:07 14° 84° (E) 04:03:10 435.910
ITAMSAT 1 23 Nov 03:59:31 04:02:43 17° 298° (WNW) 04:05:55 435.822/435.867
PCSat 23 Nov 04:01:05 04:03:57 14° 42° (NE) 04:06:48 145.827
Gurwin Techsat 1B 23 Nov 04:11:11 04:15:14 23° 295° (WNW) 04:19:17 435.225
SO-50 23 Nov 04:38:08 04:42:38 86° 301° (WNW) 04:47:18 436.795
CUBESAT XI-V 23 Nov 04:47:55 04:49:15 11° 62° (ENE) 04:50:35 437.345
MOZHAYETS 4 23 Nov 04:49:40 04:54:07 51° 261° (W) 04:58:38
BEESAT 3 23 Nov 05:12:24 05:16:03 28° 50° (NE) 05:19:39 437.485
CUTE-I 23 Nov 05:15:39 05:18:12 14° 90° (E) 05:20:45 437.470
ISS 23 Nov 05:18:16 05:20:01 14° 16° (NNE) 05:21:47 145.825
BEESAT 2 23 Nov 05:24:57 05:28:48 33° 52° (NE) 05:32:35 435.950
AO-7 23 Nov 05:27:54 05:35:57 55° 295° (WNW) 05:44:00 29.400- 29.500
STRAND 1 23 Nov 05:32:39 05:37:17 35° 69° (ENE) 05:41:55 437.568
YUBILEINY 23 Nov 05:36:09 05:39:11 12° 302° (WNW) 05:42:13 435.215
PRISM 23 Nov 05:37:57 05:42:08 75° 258° (WSW) 05:46:22 437.425
JAS-2 23 Nov 05:39:00 05:46:18 89° 104° (ESE) 05:52:41 435.910
PCSat 23 Nov 05:42:45 05:48:12 84° 62° (ENE) 05:53:37 145.827
AIST 2 23 Nov 05:44:40 05:48:24 28° 50° (NE) 05:52:06 435.215
O/OREOS (USA 219) 23 Nov 06:03:15 06:07:21 36° 105° (ESE) 06:11:28 437.305
Cubesat XI-IV 23 Nov 06:11:09 06:16:19 48° 100° (E) 06:21:26 437.490
CUBESAT XI-V 23 Nov 06:21:17 06:26:00 79° 258° (WSW) 06:30:46 437.345
SO-50 23 Nov 06:21:48 06:23:55 13° 321° (NW) 06:26:05 436.795
BEESAT 3 23 Nov 06:50:39 06:54:13 27° 247° (WSW) 06:57:43 437.485
CUTE-I 23 Nov 06:53:27 06:58:45 70° 286° (WNW) 07:04:01 437.470
ISS 23 Nov 06:54:01 06:57:16 53° 35° (NE) 07:00:31 145.825
BEESAT 2 23 Nov 07:03:38 07:06:54 22° 249° (WSW) 07:10:08 435.950
STRAND 1 23 Nov 07:12:10 07:16:28 27° 264° (W) 07:20:48 437.568
AIST 1 23 Nov 07:20:53 07:25:18 88° 262° (W) 07:29:38
AIST 2 23 Nov 07:23:17 07:26:59 28° 247° (WSW) 07:30:38 435.215
AO-7 23 Nov 07:24:23 07:26:52 12° 315° (NW) 07:29:21 29.400- 29.500
JAS-2 23 Nov 07:25:50 07:30:09 17° 304° (NW) 07:34:14 435.910
GONETS M04 23 Nov 07:26:56 07:33:58 28° 82° (E) 07:41:02
PCSat 23 Nov 07:28:58 07:30:49 12° 258° (WSW) 07:32:39 145.827
HO-68 23 Nov 07:33:56 07:36:40 12° 88° (E) 07:39:22 435.675
O/OREOS (USA 219) 23 Nov 07:43:26 07:46:51 21° 302° (WNW) 07:50:16 437.305
Cubesat XI-IV 23 Nov 07:52:07 07:56:02 21° 296° (WNW) 07:59:55 437.490
CUTE 1.7 & AOD 2 23 Nov 08:04:13 08:06:14 13° 91° (E) 08:08:14 437.475
BRITE-PL 23 Nov 08:09:21 08:11:20 13° 92° (E) 08:13:20 437.365/2234.400
ISS 23 Nov 08:31:35 08:33:37 15° 230° (SW) 08:35:38 145.825
SEEDS 23 Nov 08:39:55 08:43:39 29° 96° (E) 08:47:22 437.485
TIGRISAT 23 Nov 08:46:28 08:47:30 11° 63° (ENE) 08:48:31 435.000
DX 1 23 Nov 08:49:21 08:50:53 12° 91° (E) 08:52:25 434.975-435.025
UNISAT 6 23 Nov 08:56:50 08:59:13 15° 65° (ENE) 09:01:36 437.425
AAUSAT CUBESAT 2 23 Nov 09:03:02 09:07:01 39° 98° (E) 09:10:59 437.432
CANX-2 23 Nov 09:03:03 09:07:20 70° 101° (ESE) 09:11:37 2200.000
DOVE 4 23 Nov 09:06:00 09:09:44 32° 97° (E) 09:13:32 437.250
NANOSAT C BR1 23 Nov 09:12:33 09:15:02 15° 65° (ENE) 09:17:31 145.865
ZACube-1 23 Nov 09:15:20 09:16:15 11° 91° (E) 09:17:11 437.345
COMPASS 1 23 Nov 09:15:56 09:20:09 65° 101° (E) 09:24:22 437.405
HO-68 23 Nov 09:18:07 09:25:20 81° 105° (ESE) 09:32:30 435.675
QB50P1 23 Nov 09:21:23 09:24:24 19° 67° (ENE) 09:27:25 145.935-145.965
GONETS M04 23 Nov 09:21:28 09:30:07 61° 281° (WNW) 09:38:52
ANTELSAT 23 Nov 09:23:42 09:27:23 29° 70° (ENE) 09:31:03 437.575/2403.000
DELFI C3 23 Nov 09:24:26 09:28:02 28° 96° (E) 09:31:37 145.870
GOMX 1 23 Nov 09:33:15 09:37:25 87° 283° (WNW) 09:41:38 467.674
CUTE 1.7 & AOD 2 23 Nov 09:38:17 09:42:26 50° 286° (WNW) 09:46:34 437.475
POPSAT HIP 1 23 Nov 09:44:47 09:48:38 34° 71° (ENE) 09:52:29 437.405
BRITE-PL 23 Nov 09:46:12 09:50:08 43° 287° (WNW) 09:54:04 437.365/2234.400
BUGSAT 1 23 Nov 09:47:41 09:51:26 31° 70° (ENE) 09:55:10 437.445
FUNcube-1 23 Nov 09:48:56 09:52:31 27° 96° (E) 09:56:09 145.935
UKube-1 23 Nov 09:50:44 09:55:02 59° 101° (ESE) 09:59:18 .
CUBEBUG 2 23 Nov 09:59:55 10:04:01 50° 100° (E) 10:08:13 437.445
Oscar 11 23 Nov 10:04:24 10:08:46 82° 284° (WNW) 10:13:06 145.826/435.025
CINEMA 3 23 Nov 10:04:49 10:09:01 87° 283° (WNW) 10:13:20 145.822/145.860
UWE-3 23 Nov 10:06:43 10:10:50 52° 100° (E) 10:15:02 435.000/436.395/437.385
POLYITAN 1 23 Nov 10:15:55 10:20:11 80° 76° (ENE) 10:24:28 437.675
SEEDS 23 Nov 10:16:00 10:19:20 23° 291° (WNW) 10:22:40 437.485
QB50P2 23 Nov 10:19:13 10:23:29 87° 77° (ENE) 10:27:46 145.880/145.840
TIGRISAT 23 Nov 10:19:27 10:23:42 66° 259° (WSW) 10:27:56 435.000
DX 1 23 Nov 10:23:12 10:27:29 57° 287° (WNW) 10:31:43 434.975-435.025
DUCHIFAT 1 23 Nov 10:27:21 10:31:36 77° 258° (WSW) 10:35:53 145.980
ESTCUBE 1 23 Nov 10:27:45 10:30:48 18° 93° (E) 10:33:49 437.505/2401.250
UNISAT 6 23 Nov 10:31:30 10:35:38 46° 261° (W) 10:39:45 437.425
SHINDAISAT 23 Nov 10:32:40 10:33:54 31° 119° (ESE) 10:35:08 437.305
VELOX 1 23 Nov 10:39:12 10:43:37 63° 101° (ESE) 10:47:58 145.980
AAUSAT CUBESAT 2 23 Nov 10:39:40 10:42:23 17° 293° (WNW) 10:45:06 437.432
CANX-2 23 Nov 10:41:54 10:42:41 10° 297° (WNW) 10:43:28 2200.000
DOVE 4 23 Nov 10:44:22 10:47:20 19° 292° (WNW) 10:50:19 437.250
NANOSAT C BR1 23 Nov 10:46:27 10:50:33 45° 261° (W) 10:54:39 145.865
ZACube-1 23 Nov 10:48:49 10:52:58 59° 285° (WNW) 10:57:11 437.345
COMPASS 1 23 Nov 10:54:11 10:55:20 11° 297° (WNW) 10:56:29 437.405
